Back to catalog

USA 403

AliveNavigationVLEO
NORAD 61024·PAYLOAD·🇺🇸 United States

Launched Sep 6, 2024 from Vandenberg Space Force Base

Loading…

Next Passes (next 24 hours)

TLE

StaleSource: Mike McCants

Epoch: Sep 9, 2026, 20:11 UTC

1 61024U 24160D   26252.84124161 0.00000000  00000-0  00000-0 0    03
2 61024  70.0170 159.5375 0002999 308.8164  51.1836 14.96713248    03

Track USA 403 in real time with AllMySat

Download on the App Store